When you browse on this site, cookies collect data to enhance your experience and personalize the content and advertising you see.
Visit our Privacy Policy to learn more. By continuing to use the site, you agree to this use of cookies and data.
  • In Switzerland
  • List of Countries
  • For 7 days
  • Water Temperature
  • Weather Map
  • Weather Widgets
  • user-avatar
    Login

    Hourly Weather Povarnino

    Today, 19 August, Monday

    Time Temperature Precipitation Wind Pressure Humidity
    00:00 +14°C° 0 mm 1 mps 753 mmHg 87%
    01:00 +14°C° 0 mm 1 mps 753 mmHg 90%
    02:00 +14°C° 0 mm 2 mps 753 mmHg 92%
    03:00 +14°C° 0 mm 2 mps 752 mmHg 91%
    04:00 +14°C° 0 mm 2 mps 752 mmHg 90%
    05:00 +14°C° 0 mm 2 mps 752 mmHg 90%
    06:00 +14°C° 0 mm 3 mps 752 mmHg 84%
    07:00 +17°C° 0 mm 3 mps 752 mmHg 78%
    08:00 +18°C° 0 mm 3 mps 752 mmHg 72%
    09:00 +18°C° 0 mm 3 mps 752 mmHg 74%
    10:00 +19°C° 0 mm 3 mps 752 mmHg 76%
    11:00 +19°C° 0 mm 3 mps 752 mmHg 78%
    12:00 +21°C° 0 mm 3 mps 752 mmHg 73%
    13:00 +24°C° 0 mm 3 mps 752 mmHg 69%
    14:00 +26°C° 0 mm 4 mps 752 mmHg 64%
    15:00 +26°C° 0.4 mm 3 mps 752 mmHg 70%
    16:00 +25°C° 0.4 mm 3 mps 752 mmHg 75%
    17:00 +25°C° 0.4 mm 3 mps 752 mmHg 81%
    18:00 +24°C° 0.3 mm 3 mps 752 mmHg 85%
    19:00 +21°C° 0.3 mm 3 mps 752 mmHg 90%
    20:00 +20°C° 0.3 mm 2 mps 752 mmHg 95%
    21:00 +20°C° 0 mm 2 mps 753 mmHg 96%
    22:00 +19°C° 0 mm 2 mps 753 mmHg 96%
    23:00 +19°C° 0 mm 2 mps 753 mmHg 97%

    Tomorrow, 20 August, Tuesday

    Time Temperature Precipitation Wind Pressure Humidity
    00:00 +19°C° 0.1 mm 2 mps 754 mmHg 97%
    01:00 +18°C° 0.1 mm 2 mps 755 mmHg 97%
    02:00 +18°C° 0.1 mm 2 mps 755 mmHg 97%
    03:00 +17°C° 0.2 mm 2 mps 756 mmHg 97%
    04:00 +17°C° 0.2 mm 2 mps 756 mmHg 96%
    05:00 +16°C° 0.2 mm 2 mps 756 mmHg 96%
    06:00 +17°C° 0 mm 2 mps 757 mmHg 93%
    07:00 +18°C° 0 mm 1 mps 757 mmHg 90%
    08:00 +19°C° 0 mm 1 mps 757 mmHg 87%
    09:00 +19°C° 0 mm 2 mps 758 mmHg 77%
    10:00 +20°C° 0 mm 2 mps 758 mmHg 67%
    11:00 +23°C° 0 mm 2 mps 758 mmHg 58%
    12:00 +23°C° 0 mm 2 mps 758 mmHg 56%
    13:00 +24°C° 0 mm 2 mps 758 mmHg 53%
    14:00 +25°C° 0 mm 2 mps 759 mmHg 51%
    15:00 +25°C° 0 mm 2 mps 759 mmHg 54%
    16:00 +24°C° 0 mm 2 mps 759 mmHg 57%
    17:00 +24°C° 0 mm 1 mps 759 mmHg 60%
    18:00 +23°C° 0 mm 1 mps 759 mmHg 66%
    19:00 +21°C° 0 mm 1 mps 759 mmHg 72%
    20:00 +19°C° 0 mm 1 mps 759 mmHg 78%
    21:00 +18°C° 0 mm 1 mps 760 mmHg 81%
    22:00 +16°C° 0 mm 1 mps 760 mmHg 84%
    23:00 +15°C° 0 mm 1 mps 760 mmHg 87%

    Day after tomorrow, 21 August, Wednesday

    Time Temperature Precipitation Wind Pressure Humidity
    00:00 +15°C° 0 mm 1 mps 760 mmHg 88%
    01:00 +15°C° 0 mm 1 mps 761 mmHg 89%
    02:00 +15°C° 0 mm 1 mps 761 mmHg 90%
    03:00 +14°C° 0 mm 1 mps 761 mmHg 90%
    04:00 +14°C° 0 mm 1 mps 761 mmHg 89%
    05:00 +14°C° 0 mm 1 mps 760 mmHg 89%
    06:00 +16°C° 0 mm 1 mps 760 mmHg 84%
    07:00 +18°C° 0 mm 1 mps 760 mmHg 79%
    08:00 +20°C° 0 mm 1 mps 760 mmHg 73%
    09:00 +20°C° 0 mm 1 mps 760 mmHg 73%
    10:00 +21°C° 0 mm 1 mps 760 mmHg 72%
    11:00 +22°C° 0 mm 1 mps 760 mmHg 71%
    12:00 +20°C° 0.8 mm 1 mps 760 mmHg 79%
    13:00 +19°C° 0.8 mm 1 mps 760 mmHg 87%
    14:00 +18°C° 0.8 mm 1 mps 760 mmHg 95%
    15:00 +18°C° 1.6 mm 1 mps 759 mmHg 95%
    16:00 +16°C° 1.6 mm 1 mps 759 mmHg 95%
    17:00 +16°C° 1.6 mm 2 mps 759 mmHg 95%
    18:00 +15°C° 0.5 mm 1 mps 759 mmHg 96%
    19:00 +15°C° 0.5 mm 1 mps 759 mmHg 97%
    20:00 +13°C° 0.5 mm 0 mps 759 mmHg 97%
    21:00 +14°C° 0.1 mm 1 mps 759 mmHg 97%
    22:00 +14°C° 0.1 mm 1 mps 759 mmHg 98%
    23:00 +14°C° 0.1 mm 1 mps 760 mmHg 98%

    22 August, Thursday

    Time Temperature Precipitation Wind Pressure Humidity
    00:00 +13°C° 0 mm 1 mps 760 mmHg 98%
    01:00 +13°C° 0 mm 1 mps 760 mmHg 97%
    02:00 +12°C° 0 mm 1 mps 761 mmHg 97%
    03:00 +12°C° 0 mm 1 mps 761 mmHg 97%
    04:00 +11°C° 0 mm 1 mps 761 mmHg 97%
    05:00 +11°C° 0 mm 1 mps 761 mmHg 97%
    06:00 +13°C° 0 mm 1 mps 761 mmHg 94%
    07:00 +14°C° 0 mm 1 mps 761 mmHg 92%
    08:00 +16°C° 0 mm 1 mps 761 mmHg 90%
    09:00 +18°C° 0 mm 1 mps 761 mmHg 81%
    10:00 +20°C° 0 mm 1 mps 761 mmHg 73%
    11:00 +21°C° 0 mm 1 mps 761 mmHg 65%
    12:00 +21°C° 0 mm 2 mps 761 mmHg 62%
    13:00 +21°C° 0 mm 2 mps 761 mmHg 59%
    14:00 +21°C° 0 mm 2 mps 761 mmHg 57%
    15:00 +21°C° 0 mm 2 mps 761 mmHg 58%
    16:00 +21°C° 0 mm 1 mps 761 mmHg 60%
    17:00 +21°C° 0 mm 1 mps 761 mmHg 62%
    18:00 +19°C° 0 mm 1 mps 761 mmHg 66%
    19:00 +16°C° 0 mm 1 mps 761 mmHg 70%
    20:00 +14°C° 0 mm 0 mps 761 mmHg 73%
    21:00 +13°C° 0 mm 0 mps 761 mmHg 75%
    22:00 +12°C° 0 mm 0 mps 761 mmHg 77%
    23:00 +11°C° 0 mm 0 mps 761 mmHg 79%

    23 August, Friday

    Time Temperature Precipitation Wind Pressure Humidity
    00:00 +12°C° 0 mm 1 mps 761 mmHg 81%
    01:00 +12°C° 0 mm 1 mps 762 mmHg 82%
    02:00 +12°C° 0 mm 1 mps 762 mmHg 84%
    03:00 +12°C° 0 mm 1 mps 762 mmHg 84%
    04:00 +12°C° 0 mm 1 mps 762 mmHg 84%
    05:00 +13°C° 0 mm 1 mps 762 mmHg 84%
    06:00 +14°C° 0 mm 1 mps 762 mmHg 81%
    07:00 +15°C° 0 mm 1 mps 762 mmHg 78%
    08:00 +16°C° 0 mm 1 mps 762 mmHg 75%
    09:00 +18°C° 0 mm 1 mps 762 mmHg 70%
    10:00 +18°C° 0 mm 2 mps 762 mmHg 65%
    11:00 +20°C° 0 mm 2 mps 762 mmHg 61%
    12:00 +20°C° 0.1 mm 2 mps 762 mmHg 58%
    13:00 +21°C° 0.1 mm 2 mps 762 mmHg 55%
    14:00 +21°C° 0.1 mm 3 mps 762 mmHg 52%
    15:00 +21°C° 0 mm 2 mps 762 mmHg 54%
    16:00 +21°C° 0 mm 2 mps 762 mmHg 56%
    17:00 +21°C° 0 mm 2 mps 762 mmHg 58%
    18:00 +20°C° 0 mm 1 mps 762 mmHg 65%
    19:00 +16°C° 0 mm 1 mps 762 mmHg 73%
    20:00 +13°C° 0 mm 0 mps 762 mmHg 80%
    21:00 +13°C° 0 mm 0 mps 762 mmHg 82%
    22:00 +13°C° 0 mm 1 mps 763 mmHg 85%
    23:00 +13°C° 0 mm 1 mps 763 mmHg 87%

    24 August, Saturday

    Time Temperature Precipitation Wind Pressure Humidity
    00:00 +12°C° 0 mm 1 mps 763 mmHg 89%
    01:00 +12°C° 0 mm 1 mps 763 mmHg 91%
    02:00 +12°C° 0 mm 1 mps 764 mmHg 93%
    03:00 +12°C° 0 mm 1 mps 764 mmHg 94%
    04:00 +10°C° 0 mm 0 mps 764 mmHg 94%
    05:00 +10°C° 0 mm 0 mps 764 mmHg 95%
    06:00 +12°C° 0 mm 0 mps 764 mmHg 89%
    07:00 +14°C° 0 mm 0 mps 764 mmHg 83%
    08:00 +16°C° 0 mm 0 mps 764 mmHg 77%
    09:00 +20°C° 0 mm 1 mps 764 mmHg 71%
    10:00 +21°C° 0 mm 1 mps 764 mmHg 65%
    11:00 +23°C° 0 mm 1 mps 764 mmHg 58%
    12:00 +23°C° 0 mm 1 mps 764 mmHg 57%
    13:00 +23°C° 0 mm 1 mps 764 mmHg 56%
    14:00 +23°C° 0 mm 1 mps 763 mmHg 54%
    15:00 +23°C° 0 mm 1 mps 763 mmHg 57%
    16:00 +23°C° 0 mm 1 mps 763 mmHg 59%
    17:00 +22°C° 0 mm 1 mps 763 mmHg 62%
    18:00 +20°C° 0 mm 1 mps 763 mmHg 68%
    19:00 +18°C° 0 mm 1 mps 763 mmHg 74%
    20:00 +15°C° 0 mm 1 mps 763 mmHg 80%
    21:00 +15°C° 0 mm 1 mps 763 mmHg 82%
    22:00 +14°C° 0 mm 1 mps 763 mmHg 84%
    23:00 +14°C° 0 mm 1 mps 763 mmHg 86%
    Show more